Погода в Ния

Россия / Иркутская область     56°33′11″N   106°48′11″E
темп.,
°C
ветер,
м/с
пор.,
м/с
влажн.,
%
обл.,
%
осадки,
мм/ч
давл.,
гПа
погр.,
м
29 июня, ср
ср2923:00+17зсз3894100 1.5 1003207
02:00+16зюз119999 2.8 100525
05:00+17зсз129895 0.3 1006113
08:00+16зсз379799 1.6 1009556
11:00+20зсз346286 0.4 10081134
14:00+21ссз135198 0.4 10081346
17:00+21св2352100 0.0 1007728
20:00+20вюв126395 0.0 1007120
30 июня, чт
чт3023:00+14ю11888 0.0 100710
02:00+13ю0090100 0.0 100710
05:00+13в1188100 0.0 100710
08:00+19св1363100 0.0 1005444
11:00+16св1293100 0.9 1006182
14:00+19в2372100 1.0 1006740
17:00+22в226116 0.1 1004934
20:00+21всв237016 0.1 1004286
1 июля, пт
пт123:00+15вюв11960 0.0 100410
02:00+14юв11970 0.0 100511
05:00+14вюв11970 0.0 100411
08:00+20в11700 0.0 1003465
11:00+27ссв024725 0.0 10021587
14:00+30с12320 0.0 10002379
17:00+30сз22280 0.0 9992671
20:00+25всв26540 0.0 999173
2 июля, сб
сб223:00+18вюв21790 0.0 100011
02:00+17юв227713 0.0 100013
05:00+17юв11763 0.0 100011
08:00+24ю115229 0.0 1000334
11:00+31ссв123381 0.0 9981383
14:00+31сз463284 0.0 9972832
17:00+21с2591100 3.2 999197
20:00+20ссв1194100 3.6 99928
3 июля, вс
вс323:00+15ссз2119695 0.9 1003504
02:00+13з3897100 1.6 1005628
05:00+13з2897100 1.3 1007595
08:00+14з2591100 1.4 1008678
11:00+18сз3463100 0.1 10081148
14:00+19ссз3458100 0.1 10081306
17:00+21с3548100 0.0 10061622
20:00+19ссв2659100 0.0 1006666